User: anonymous   Login
Location: Newark
(45.8667°N, 9.7333°E)
Time: 16:30:54
(UTC+00:00)
Language:

A-11 Canister half - Orbit

View from above orbital plane
View from above orbital plane
View from above satellite
View from above satellite

Ground track
Ground track

The orbit data is extracted from the following two-line orbital elements,

1    53U 60009E   20023.29074399 -.00000033  00000-0  51653-3 0  9993
2    53  47.2787 349.7294 0099411   8.3199 351.9213 12.17236897650761
Epoch (UTC): 23 January 2020 06:58:40
Eccentricity: 0.0099411
inclination: 47.2787°
perigee height: 1525 km
apogee height: 1684 km
right ascension of ascending node: 349.7294°
argument of perigee: 8.3199°
revolutions per day: 12.17236897
mean anomaly at epoch: 351.9213°
orbit number at epoch: 65076

The dashed part of the orbit path shows where the satellite is in the earth's shadow,  

DLR